STARLINK-30312 (57641 NORAD) Tracking and Keplerian Element Data

This shows tracking and keplerian element data for the satellite.

Feedback or suggestion? Click here.




ElementValue
Catalog57641
NameSTARLINK-30312
Epoch Orbit279
Epoch Day238.91667824
Epoch Year2023
RAAN95.9274
Inclination43.0009
Eccentricity0.0002957
Argument of Perigee135.8331
Mean Anonmoly288.2009
Mean Motion15.86054724
Decay Rate-0.00893424
L11 57641U 23122K 23238.91667824 -.00893424 00000+0 -38638-2 0 9995
L22 57641 43.0009 95.9274 0002957 135.8331 288.2009 15.86054724 2793



Live tracking and technical data element details for STARLINK-30312 (NORAD 57641). STARLINK-30312 can be tracked NOW for your location showing map with azimuth and elevation plus other details from your city location.







IsCatalogInMostPopularTable: catalog: 57641, numindb: 7
Update: records affected: 1



GetName: 57641 STARLINK-30312

Hit Count: updated at: Tue, 26 Sep 2023 12:00:17 GMT